Tiempo atmosférico en la estación meteorológica de La Orotava, Cañadas Teide, Santa Cruz de Tenerife (2150 m.)



Fecha
DESCASC
Temp. máxima en grados centígrados (hora)
DESCASC
Temp. mínima en grados centígrados (hora)
DESCASC
Temp. media en grados centígrados
DESCASC
Racha de viento máxima en m/sg (hora)
DESCASC
Velocidad máxima media en intervalos de 10 minutos(hora)
DESCASC
Precipitaciones diarias en mm
DESCASC
Precipitaciones de 00:00 a 06:00 en mm
DESCASC
Precipitaciones de 06:00 a 12:00 en mm
DESCASC
Precipitaciones de 12:00 a 18:00 en mm
DESCASC
Precipitaciones de 18:00 a 24:00 en mm
DESCASC
10-07-2020 28.5 (13:40) 18.4 (23:59) 23.4 16.94 (04:20) 9.72 (15:30) 0 0 0 0 0
09-07-2020 28.2 (12:50) 19.6 (07:50) 23.9 15.56 (16:50) 9.72 (16:30) 0 0 0 0 0
08-07-2020 31 (17:00) 16.7 (05:00) 23.9 10.28 (12:40) 6.67 (13:00) 0 0 0 0 0
07-07-2020 30.5 (16:00) 18.3 (05:30) 24.4 11.39 (15:30) 5 (14:20) 0 0 0 0 0
06-07-2020 31.5 (16:20) 16.3 (00:00) 23.9 10.56 (15:00) 5.83 (16:40) 0 0 0 0 0
05-07-2020 30.1 (14:50) 16.7 (07:30) 23.4 11.11 (14:00) 5.83 (14:50) 0 0 0 0 0
04-07-2020 28 (15:20) 13.9 (07:00) 20.9 10 (15:10) 4.72 (15:00) 0 0 0 0 0
03-07-2020 29.3 (16:30) 14.7 (06:30) 22 11.39 (17:30) 5.28 (17:30) 0 0 0 0 0
02-07-2020 28.7 (16:30) 14.9 (00:00) 21.8 11.11 (15:00) 6.39 (16:20) 0 0 0 0 0
01-07-2020 29.2 (16:50) 19 (00:00) 24.1 13.06 (17:00) 5.56 (15:00) 0 0 0 0 0
30-06-2020 26.5 (14:50) 11.1 (00:00) 18.8 15.28 (18:00) 6.67 (18:00) 0 0 0 0 0
29-06-2020 26 (16:40) 10.1 (00:00) 18.1 9.17 (13:00) 6.11 (05:40) 0 0 0 0 0
28-06-2020 25.8 (17:40) 9.4 (00:00) 17.6 8.61 (15:00) 5.83 (23:00) 0 0 0 0 0
27-06-2020 26.6 (15:10) 8.8 (00:00) 17.7 12.22 (16:20) 6.94 (16:40) 0 0 0 0 0
26-06-2020 25.2 (17:40) 7.3 (00:00) 16.3 8.89 (19:00) 4.72 (14:00) 0 0 0 0 0
25-06-2020 24.7 (14:20) 7 (00:00) 15.9 -- (--) -- (--) 0 0 0 0 0
24-06-2020 24.3 (13:30) 7.6 (00:00) 15.9 14.72 (16:00) 8.06 (17:30) 0 0 0 0 0
23-06-2020 25.1 (17:10) 8.2 (00:00) 16.7 8.33 (16:40) 4.44 (16:40) 0 0 0 0 0
22-06-2020 26.1 (14:50) 8.7 (00:00) 17.4 13.33 (16:20) 8.06 (16:20) 0 0 0 0 0
21-06-2020 26.2 (13:30) 9.8 (00:00) 18 10 (18:40) 5 (12:20) 0 0 0 0 0
20-06-2020 24.8 (16:20) 6.5 (00:00) 15.6 9.72 (13:30) 4.72 (16:10) 0 0 0 0 0
19-06-2020 21.5 (16:40) 6.3 (00:00) 13.9 10.56 (11:50) 6.67 (21:30) 0 0 0 0 0
18-06-2020 18.2 (15:10) 7.1 (07:10) 12.7 13.89 (03:20) 8.89 (21:30) 0 0 0 0 0
17-06-2020 17.5 (15:50) 11.1 (00:00) 14.3 19.17 (00:20) 10.83 (00:20) 9.8 9.4 0.4 0 0
16-06-2020 21.2 (15:40) 14.9 (00:00) 18.1 18.61 (20:00) 9.44 (19:50) 0.8 0 0 0 0.8
15-06-2020 20.3 (16:50) 12.3 (00:00) 16.3 18.89 (10:40) 10.83 (17:20) 2.4 2.2 0.2 0 0
14-06-2020 21.5 (14:40) 12.8 (00:00) 17.2 15.28 (06:40) 7.5 (09:30) 0.2 0 0 0 0.2
13-06-2020 19.4 (15:20) 11.5 (00:00) 15.4 14.17 (13:10) 6.67 (14:20) 0 0 0 0 0
12-06-2020 18.7 (15:10) 11.3 (00:00) 15 15 (13:00) 7.5 (12:30) 0 0 0 0 0

Gráficas

Temp. máximas Temp. mínimas Temp. medias Precipitaciones Rachas de viento máximas Velocidades máximas media en intervalos de 10 minutos

Datos horarios

Fecha y hora oficial Temperatura (ºC) Velocidad del viento (km/h) Dirección del viento Racha (km/h) Dirección de racha Precipitación (mm) Presión (hPa) Tendencia (hPa) Humedad (%)
2020-07-11 23:00:00 16.7 15 Nordeste 20 Este 0 -- -- 16
2020-07-11 22:00:00 18.1 15 Nordeste 23 Nordeste 0 -- -- 13
2020-07-11 21:00:00 20.1 17 Nordeste 25 Nordeste 0 -- -- 10
2020-07-11 20:00:00 24.8 14 Nordeste 21 Este 0 -- -- 13
2020-07-11 19:00:00 25.5 6 Sudoeste 22 Este 0 -- -- 22
2020-07-11 18:00:00 26.8 14 Nordeste 33 Este 0 -- -- 12
2020-07-11 17:00:00 26.5 15 Este 29 Este 0 -- -- 14
2020-07-11 16:00:00 26.2 19 Nordeste 39 Nordeste 0 -- -- 15
2020-07-11 15:00:00 26 22 Nordeste 39 Nordeste 0 -- -- 10
2020-07-11 14:00:00 25.8 24 Nordeste 37 Nordeste 0 -- -- 11
2020-07-11 13:00:00 26.1 24 Nordeste 39 Nordeste 0 -- -- 11
2020-07-11 12:00:00 24.7 23 Nordeste 38 Nordeste 0 -- -- 11
2020-07-11 11:00:00 24.3 24 Nordeste 34 Nordeste 0 -- -- 12
2020-07-11 10:00:00 22.3 17 Este 27 Este 0 -- -- 13
2020-07-11 09:00:00 20.5 13 Nordeste 22 Este 0 -- -- 11
2020-07-11 08:00:00 16.9 14 Este 21 Este 0 -- -- 11
2020-07-11 07:00:00 15.4 13 Este 27 Este 0 -- -- 11
2020-07-11 06:00:00 15.9 18 Este 31 Este 0 -- -- 14
2020-07-11 05:00:00 16.7 20 Este 35 Este 0 -- -- 11
2020-07-11 04:00:00 17 18 Este 28 Este 0 -- -- 10
2020-07-11 03:00:00 17.1 19 Este 26 Nordeste 0 -- -- 14
2020-07-11 02:00:00 17.3 19 Este 29 Este 0 -- -- 13
2020-07-11 01:00:00 17.9 21 Este 29 Este 0 -- -- 10
2020-07-11 00:00:00 18.4 17 Este 30 Este 0 -- -- 8
2020-07-10 23:00:00 18.9 19 Este 36 Sudeste 0 -- -- 7
2020-07-10 22:00:00 19.4 18 Nordeste 35 Norte 0 -- -- 8
2020-07-10 21:00:00 20.7 23 Nordeste 42 Nordeste 0 -- -- 8
2020-07-10 20:00:00 23 27 Nordeste 44 Norte 0 -- -- 7
2020-07-10 19:00:00 25.3 26 Nordeste 47 Nordeste 0 -- -- 13
2020-07-10 18:00:00 26.7 29 Nordeste 50 Nordeste 0 -- -- 16
2020-07-10 17:00:00 26.8 30 Nordeste 45 Nordeste 0 -- -- 16
2020-07-10 16:00:00 27.3 27 Nordeste 56 Nordeste 0 -- -- 19
2020-07-10 15:00:00 28 26 Nordeste 50 Nordeste 0 -- -- 15
2020-07-10 14:00:00 28.2 30 Nordeste 47 Nordeste 0 -- -- 14
2020-07-10 13:00:00 27.5 29 Nordeste 51 Nordeste 0 -- -- 13
2020-07-10 12:00:00 26.8 34 Nordeste 54 Nordeste 0 -- -- 14
2020-07-10 11:00:00 26.2 32 Nordeste 55 Norte 0 -- -- 16
2020-07-10 10:00:00 25.5 24 Nordeste 42 Norte 0 -- -- 13
2020-07-10 09:00:00 23.5 10 Este 39 Nordeste 0 -- -- 18
2020-07-10 08:00:00 20.9 8 Noroeste 30 Norte 0 -- -- 21
2020-07-10 07:00:00 20.5 15 Norte 39 Nordeste 0 -- -- 19
2020-07-10 06:00:00 20.6 22 Norte 47 Norte 0 -- -- 19
2020-07-10 05:00:00 20.7 25 Norte 61 Norte 0 -- -- 24
2020-07-10 04:00:00 20.8 31 Norte 59 Norte 0 -- -- 21
2020-07-10 03:00:00 20.8 28 Norte 44 Norte 0 -- -- 21
2020-07-10 02:00:00 21.2 13 Noroeste 38 Noroeste 0 -- -- 18
2020-07-10 01:00:00 21.5 15 Noroeste 52 Norte 0 -- -- 17
2020-07-10 00:00:00 21.5 25 Norte 43 Norte 0 -- -- 17
2020-07-09 23:00:00 21.8 13 Norte 31 Noroeste 0 -- -- 18
2020-07-09 22:00:00 21.4 9 Este 28 Norte 0 -- -- 17
2020-07-09 21:00:00 22.3 10 Norte 49 Nordeste 0 -- -- 15
2020-07-09 20:00:00 24.5 21 Norte 40 Norte 0 -- -- 13
2020-07-09 19:00:00 26.1 23 Nordeste 44 Nordeste 0 -- -- 13
2020-07-09 18:00:00 26.9 26 Nordeste 55 Norte 0 -- -- 12
2020-07-09 17:00:00 27.2 31 Nordeste 56 Norte 0 -- -- 11
2020-07-09 16:00:00 27.1 32 Nordeste 55 Norte 0 -- -- 12
2020-07-09 15:00:00 27.3 31 Nordeste 46 Nordeste 0 -- -- 12
2020-07-09 14:00:00 27.4 27 Nordeste 50 Este 0 -- -- 13
2020-07-09 13:00:00 28.2 24 Nordeste 42 Este 0 -- -- 14
2020-07-09 12:00:00 27.1 24 Nordeste 39 Este 0 -- -- 15
2020-07-09 11:00:00 26.2 20 Nordeste 35 Este 0 -- -- 16
2020-07-09 10:00:00 23.7 23 Este 36 Este 0 -- -- 17
2020-07-09 09:00:00 21.8 19 Este 35 Este 0 -- -- 18
2020-07-09 08:00:00 19.9 18 Este 32 Este 0 -- -- 20
2020-07-09 07:00:00 20.2 12 Este 42 Norte 0 -- -- 22
2020-07-09 06:00:00 20.1 14 Este 28 Este 0 -- -- 21
2020-07-09 05:00:00 19.8 17 Este 29 Norte 0 -- -- 21
2020-07-09 04:00:00 19.7 17 Este 30 Nordeste 0 -- -- 21
2020-07-09 03:00:00 21.4 20 Nordeste 47 Nordeste 0 -- -- 20
2020-07-09 02:00:00 21.8 18 Nordeste 38 Nordeste 0 -- -- 19
2020-07-09 01:00:00 20.8 15 Nordeste 30 Nordeste 0 -- -- 19
2020-07-09 00:00:00 21.5 17 Nordeste 26 Este 0 -- -- 19
2020-07-08 23:00:00 21.7 11 Este 29 Este 0 -- -- 19
2020-07-08 22:00:00 23.3 18 Este 26 Este 0 -- -- 17
2020-07-08 21:00:00 25 6 Noroeste 24 Oeste 0 -- -- 17
2020-07-08 20:00:00 27.3 11 Noroeste 27 Oeste 0 -- -- 15
2020-07-08 19:00:00 28.3 13 Noroeste 32 Oeste 0 -- -- 15
2020-07-08 18:00:00 29.3 13 Noroeste 35 Noroeste 0 -- -- 14
2020-07-08 17:00:00 31 11 Sudoeste 26 Oeste 0 -- -- 17
2020-07-08 16:00:00 29.9 18 Sudoeste 31 Sudoeste 0 -- -- 17
2020-07-08 15:00:00 28.9 15 Sudoeste 33 Oeste 0 -- -- 15
2020-07-08 14:00:00 29.5 8 Oeste 34 Norte 0 -- -- 15
2020-07-08 13:00:00 28.6 24 Norte 37 Noroeste 0 -- -- 14
2020-07-08 12:00:00 28.9 15 Norte 28 Oeste 0 -- -- 14
2020-07-08 11:00:00 27.8 10 Oeste 22 Sudoeste 0 -- -- 14
2020-07-08 10:00:00 27.7 9 Nordeste 16 Nordeste 0 -- -- 14
2020-07-08 09:00:00 24.2 11 Este 17 Este 0 -- -- 17
2020-07-08 08:00:00 21.4 12 Este 21 Este 0 -- -- 19
2020-07-08 07:00:00 21.2 16 Este 22 Este 0 -- -- 19
2020-07-08 06:00:00 18.9 6 Este 15 Norte 0 -- -- 22
2020-07-08 05:00:00 16.7 7 Nordeste 13 Norte 0 -- -- 25
2020-07-08 04:00:00 19.3 4 Nordeste 19 Este 0 -- -- 22
2020-07-08 03:00:00 20.5 9 Este 17 Este 0 -- -- 21
2020-07-08 02:00:00 21.7 14 Este 21 Este 0 -- -- 20
2020-07-08 01:00:00 21.7 11 Este 18 Este 0 -- -- 20
2020-07-08 00:00:00 22.2 10 Este 19 Este 0 -- -- 20
2020-07-07 23:00:00 22.7 13 Este 20 Este 0 -- -- 20
2020-07-07 22:00:00 23.5 15 Este 21 Este 0 -- -- 19
2020-07-07 21:00:00 25 9 Este 18 Sudoeste 0 -- -- 18
2020-07-07 20:00:00 27.5 9 Sudoeste 27 Oeste 0 -- -- 16
2020-07-07 19:00:00 29.5 9 Oeste 30 Oeste 0 -- -- 15
2020-07-07 18:00:00 29.5 10 Oeste 37 Oeste 0 -- -- 15
2020-07-07 17:00:00 29.4 13 Noroeste 32 Oeste 0 -- -- 15
2020-07-07 16:00:00 30.5 11 Oeste 41 Oeste 0 -- -- 14
2020-07-07 15:00:00 30.2 12 Oeste 38 Oeste 0 -- -- 14
2020-07-07 14:00:00 29.9 15 Sudoeste 36 Oeste 0 -- -- 14
2020-07-07 13:00:00 29.4 14 Sudoeste 41 Oeste 0 -- -- 15
2020-07-07 12:00:00 27.8 15 Oeste 31 Oeste 0 -- -- 16
2020-07-07 11:00:00 26.7 15 Oeste 30 Oeste 0 -- -- 16
2020-07-07 10:00:00 25.9 6 Sudoeste 12 Oeste 0 -- -- 18
2020-07-07 09:00:00 23.1 3 Sur 6 Sudoeste 0 -- -- 20
2020-07-07 08:00:00 19.3 2 Sudeste 5 Sur 0 -- -- 22
2020-07-07 07:00:00 19.5 3 Oeste 6 Norte 0 -- -- 23
2020-07-07 06:00:00 18.6 5 Norte 9 Norte 0 -- -- 24
2020-07-07 05:00:00 18.7 6 Nordeste 7 Nordeste 0 -- -- 22
2020-07-07 04:00:00 19.5 6 Norte 8 Norte 0 -- -- 23
2020-07-07 03:00:00 19.1 7 Norte 9 Norte 0 -- -- 24
2020-07-07 02:00:00 19.4 5 Norte 8 Nordeste 0 -- -- 24
2020-07-07 01:00:00 19.9 6 Nordeste 8 Norte 0 -- -- 23
2020-07-07 00:00:00 21.4 5 Nordeste 12 Norte 0 -- -- 21
2020-07-06 23:00:00 20.9 7 Nordeste 15 Este 0 -- -- 21
2020-07-06 22:00:00 22.9 6 Nordeste 19 Sudeste 0 -- -- 19
2020-07-06 21:00:00 24.6 12 Sudeste 18 Sudeste 0 -- -- 19
2020-07-06 20:00:00 27.5 13 Sudoeste 31 Sudoeste 0 -- -- 20
2020-07-06 19:00:00 29.1 16 Sur 30 Sudoeste 0 -- -- 18
2020-07-06 18:00:00 30 15 Sudoeste 31 Sudoeste 0 -- -- 16
2020-07-06 17:00:00 30.3 18 Sudoeste 36 Sudoeste 0 -- -- 17
2020-07-06 16:00:00 30.7 17 Sur 37 Sur 0 -- -- 13
2020-07-06 15:00:00 30.2 20 Sudoeste 38 Sudoeste 0 -- -- 15
2020-07-06 14:00:00 30 17 Sudeste 30 Sudeste 0 -- -- 15
2020-07-06 13:00:00 29.7 14 Sudeste 31 Sur 0 -- -- 14
2020-07-06 12:00:00 28.7 9 Sur 24 Sudeste 0 -- -- 15
2020-07-06 11:00:00 28.2 5 Noroeste 15 Sudeste 0 -- -- 16
2020-07-06 10:00:00 25.8 9 Este 14 Este 0 -- -- 18
2020-07-06 09:00:00 23.9 8 Nordeste 12 Nordeste 0 -- -- 20
2020-07-06 08:00:00 18.7 4 Nordeste 15 Este 0 -- -- 24
2020-07-06 07:00:00 16.8 4 Norte 15 Este 0 -- -- 26
2020-07-06 06:00:00 18 10 Este 14 Este 0 -- -- 24
2020-07-06 05:00:00 18.3 5 Norte 11 Norte 0 -- -- 23
2020-07-06 04:00:00 16.5 6 Norte 8 Nordeste 0 -- -- 25
2020-07-06 03:00:00 17.9 5 Norte 8 Norte 0 -- -- 23
2020-07-06 02:00:00 18.1 3 Nordeste 8 Este 0 -- -- 23
2020-07-06 01:00:00 18.6 8 Norte 10 Norte 0 -- -- 23
2020-07-06 00:00:00 20.4 4 Nordeste 10 Norte 0 -- -- 22
2020-07-05 23:00:00 19.9 4 Nordeste 14 Este 0 -- -- 23
2020-07-05 22:00:00 21.6 10 Nordeste 14 Nordeste 0 -- -- 20
2020-07-05 21:00:00 23.4 10 Este 15 Este 0 -- -- 19
2020-07-05 20:00:00 26.2 4 Sudoeste 17 Sur 0 -- -- 17
2020-07-05 19:00:00 27.1 9 Sudoeste 26 Sudoeste 0 -- -- 17
2020-07-05 18:00:00 28.4 14 Sudoeste 31 Sudoeste 0 -- -- 16
2020-07-05 17:00:00 29 12 Oeste 33 Sudoeste 0 -- -- 16
2020-07-05 16:00:00 29.6 9 Sudoeste 30 Sudoeste 0 -- -- 15
2020-07-05 15:00:00 29.1 14 Sur 36 Sudoeste 0 -- -- 16
2020-07-05 14:00:00 29.3 15 Sudoeste 40 Sudoeste 0 -- -- 17
2020-07-05 13:00:00 27.2 14 Oeste 26 Oeste 0 -- -- 17
2020-07-05 12:00:00 26.8 10 Oeste 27 Oeste 0 -- -- 18
2020-07-05 11:00:00 25.9 8 Sudoeste 22 Oeste 0 -- -- 17
2020-07-05 10:00:00 24.4 8 Sur 12 Sur 0 -- -- 17
2020-07-05 09:00:00 23.1 8 Sur 11 Sur 0 -- -- 19
2020-07-05 08:00:00 19.7 6 Sur 9 Sur 0 -- -- 21
2020-07-05 07:00:00 18.4 4 Sur 7 Sur 0 -- -- 22
2020-07-05 06:00:00 19.3 3 Sur 9 Sur 0 -- -- 20
2020-07-05 05:00:00 19.3 2 Sur 9 Sudoeste 0 -- -- 20
2020-07-05 04:00:00 20.1 5 Sudoeste 7 Sudoeste 0 -- -- 19
2020-07-05 03:00:00 19.5 5 Sur 7 Sur 0 -- -- 19
2020-07-05 02:00:00 18 0 Calma 5 Sudoeste 0 -- -- 19
2020-07-05 01:00:00 19.3 3 Sur 6 Sudoeste 0 -- -- 18
2020-07-05 00:00:00 19.9 4 Sur 9 Sur 0 -- -- 17
2020-07-04 23:00:00 20.8 6 Sur 9 Sudoeste 0 -- -- 16
2020-07-04 22:00:00 21.3 0 Calma 15 Sudoeste 0 -- -- 15
2020-07-04 21:00:00 23.1 8 Oeste 20 Oeste 0 -- -- 14
2020-07-04 20:00:00 24.8 12 Oeste 25 Oeste 0 -- -- 15
2020-07-04 19:00:00 26.4 13 Oeste 26 Oeste 0 -- -- 15
2020-07-04 18:00:00 26.9 13 Oeste 33 Oeste 0 -- -- 15
2020-07-04 17:00:00 28 11 Sudoeste 32 Oeste 0 -- -- 13
2020-07-04 16:00:00 27.5 17 Oeste 36 Sur 0 -- -- 15
2020-07-04 15:00:00 27.1 17 Oeste 30 Oeste 0 -- -- 16
2020-07-04 14:00:00 27.5 16 Oeste 30 Oeste 0 -- -- 15
2020-07-04 13:00:00 26.8 16 Oeste 30 Oeste 0 -- -- 16
2020-07-04 12:00:00 26.4 12 Oeste 25 Oeste 0 -- -- 14
2020-07-04 11:00:00 25.4 10 Oeste 19 Sudoeste 0 -- -- 15
2020-07-04 10:00:00 24.1 9 Sudoeste 15 Sur 0 -- -- 15
2020-07-04 09:00:00 22.2 8 Sur 10 Sur 0 -- -- 16
2020-07-04 08:00:00 15.4 2 Sudoeste 8 Norte 0 -- -- 26
2020-07-04 07:00:00 13.9 4 Norte 8 Norte 0 -- -- 28
2020-07-04 06:00:00 14.5 7 Norte 10 Norte 0 -- -- 26
2020-07-04 05:00:00 14.5 4 Norte 12 Norte 0 -- -- 25
2020-07-04 04:00:00 15.4 8 Norte 12 Norte 0 -- -- 24
2020-07-04 03:00:00 16.4 9 Nordeste 13 Norte 0 -- -- 23
2020-07-04 02:00:00 16.2 3 Norte 10 Este 0 -- -- 23
2020-07-04 01:00:00 17.1 7 Nordeste 11 Nordeste 0 -- -- 22
2020-07-04 00:00:00 18.5 8 Nordeste 13 Nordeste 0 -- -- 20
2020-07-03 23:00:00 19.8 8 Este 12 Nordeste 0 -- -- 18
2020-07-03 22:00:00 21.3 2 Norte 13 Sudeste 0 -- -- 18
2020-07-03 21:00:00 23.3 4 Nordeste 26 Sudoeste 0 -- -- 17
2020-07-03 20:00:00 26.3 9 Oeste 23 Oeste 0 -- -- 16
2020-07-03 19:00:00 26.8 14 Oeste 36 Sur 0 -- -- 16
2020-07-03 18:00:00 28.8 12 Sur 41 Sudoeste 0 -- -- 15
2020-07-03 17:00:00 28.6 9 Oeste 26 Sudoeste 0 -- -- 15
2020-07-03 16:00:00 28.9 18 Sudoeste 35 Sur 0 -- -- 15
2020-07-03 15:00:00 28 13 Oeste 28 Sudoeste 0 -- -- 16
2020-07-03 14:00:00 27.9 12 Oeste 35 Oeste 0 -- -- 17
2020-07-03 13:00:00 28.6 16 Sudoeste 25 Sur 0 -- -- 15
2020-07-03 12:00:00 27.8 13 Sur 23 Sur 0 -- -- 16
2020-07-03 11:00:00 26.6 5 Noroeste 13 Sur 0 -- -- 17
2020-07-03 10:00:00 24 4 Sudoeste 10 Este 0 -- -- 19
2020-07-03 09:00:00 20.7 3 Norte 9 Nordeste 0 -- -- 23
2020-07-03 08:00:00 16 7 Norte 11 Norte 0 -- -- 27
2020-07-03 07:00:00 15.3 4 Nordeste 12 Norte 0 -- -- 27
2020-07-03 06:00:00 15.3 6 Norte 11 Norte 0 -- -- 28
2020-07-03 05:00:00 16.1 4 Nordeste 14 Este 0 -- -- 27
2020-07-03 04:00:00 18.3 10 Nordeste 13 Nordeste 0 -- -- 23
2020-07-03 03:00:00 18.7 5 Nordeste 15 Nordeste 0 -- -- 23
2020-07-03 02:00:00 19 4 Este 9 Este 0 -- -- 23
2020-07-03 01:00:00 20 0 Calma 8 Sudeste 0 -- -- 23
2020-07-03 00:00:00 20.2 2 Sudeste 8 Norte 0 -- -- 21
2020-07-02 23:00:00 20.2 6 Este 8 Este 0 -- -- 19
2020-07-02 22:00:00 22.2 0 Calma 10 Noroeste 0 -- -- 20
2020-07-02 21:00:00 24.1 6 Oeste 19 Sur 0 -- -- 19
2020-07-02 20:00:00 26.4 15 Sudoeste 21 Sudoeste 0 -- -- 17
2020-07-02 19:00:00 27.6 14 Sudoeste 28 Sudoeste 0 -- -- 16
2020-07-02 18:00:00 28.2 16 Sudoeste 35 Sudoeste 0 -- -- 16
2020-07-02 17:00:00 28.1 16 Sudoeste 39 Sudoeste 0 -- -- 18
2020-07-02 16:00:00 28.5 18 Sudoeste 38 Sudoeste 0 -- -- 16
2020-07-02 15:00:00 28 19 Oeste 40 Sudoeste 0 -- -- 17
2020-07-02 14:00:00 27.6 19 Sudoeste 37 Sudoeste 0 -- -- 16
2020-07-02 13:00:00 27.7 12 Sudoeste 31 Sur 0 -- -- 15
2020-07-02 12:00:00 27.1 19 Sur 33 Sudoeste 0 -- -- 14
2020-07-02 11:00:00 26.8 8 Sur 17 Sudoeste 0 -- -- 15
2020-07-02 10:00:00 25.1 7 Sur 17 Sur 0 -- -- 14
2020-07-02 09:00:00 23 5 Nordeste 12 Nordeste 0 -- -- 17
2020-07-02 08:00:00 17.6 7 Nordeste 11 Nordeste 0 -- -- 24
2020-07-02 07:00:00 16.1 5 Nordeste 9 Norte 0 -- -- 24
2020-07-02 06:00:00 15.4 8 Nordeste 9 Norte 0 -- -- 24
2020-07-02 05:00:00 15.9 6 Norte 7 Norte 0 -- -- 22
2020-07-02 04:00:00 17.8 4 Este 10 Norte 0 -- -- 20
2020-07-02 03:00:00 16.8 2 Nordeste 5 Norte 0 -- -- 21
2020-07-02 02:00:00 18.8 0 Calma 4 Norte 0 -- -- 18
2020-07-02 01:00:00 19.2 0 Calma 3 Norte 0 -- -- 18
2020-07-02 00:00:00 20 0 Calma 6 Sur 0 -- -- 17
2020-07-01 23:00:00 21.4 4 Sur 9 Sur 0 -- -- 15
2020-07-01 22:00:00 22.3 6 Sur 13 Sur 0 -- -- 15
2020-07-01 21:00:00 23.2 5 Oeste 30 Sur 0 -- -- 14
2020-07-01 20:00:00 25.7 10 Sur 28 Sur 0 -- -- 13
2020-07-01 19:00:00 27.3 12 Sudoeste 30 Sudoeste 0 -- -- 12
2020-07-01 18:00:00 28 14 Sudoeste 36 Oeste 0 -- -- 12
2020-07-01 17:00:00 28 19 Sudoeste 47 Sur 0 -- -- 11
2020-07-01 16:00:00 28 18 Oeste 36 Oeste 0 -- -- 11
2020-07-01 15:00:00 27.8 20 Sudoeste 36 Noroeste 0 -- -- 11
2020-07-01 14:00:00 27.1 20 Oeste 42 Oeste 0 -- -- 12
2020-07-01 13:00:00 26.9 16 Oeste 36 Oeste 0 -- -- 11
2020-07-01 12:00:00 27.1 13 Sudoeste 31 Sudoeste 0 -- -- 8
2020-07-01 11:00:00 25.5 17 Oeste 38 Sudoeste 0 -- -- 7
2020-07-01 10:00:00 24.9 13 Sudoeste 32 Oeste 0 -- -- 7
2020-07-01 09:00:00 23.3 10 Sudoeste 30 Oeste 0 -- -- 6
2020-07-01 08:00:00 22.3 16 Sudoeste 37 Sudoeste 0 -- -- 10
2020-07-01 07:00:00 22 14 Sudoeste 45 Sudoeste 0 -- -- 9
2020-07-01 06:00:00 21.7 10 Sudoeste 30 Sudoeste 0 -- -- 9
2020-07-01 05:00:00 21.4 17 Oeste 31 Oeste 0 -- -- 8
2020-07-01 04:00:00 21.2 12 Oeste 37 Oeste 0 -- -- 8
2020-07-01 03:00:00 19.9 7 Oeste 20 Oeste 0 -- -- 7
2020-07-01 02:00:00 19.3 7 Sudoeste 16 Sudoeste 0 -- -- 7
2020-07-01 01:00:00 19.3 9 Sudoeste 17 Sudoeste 0 -- -- 7
2020-07-01 00:00:00 19.3 10 Sudoeste 19 Sudoeste 0 -- -- 9
2020-06-30 23:00:00 20.2 8 Sudoeste 32 Oeste 0 -- -- 9
2020-06-30 22:00:00 21 15 Sudoeste 42 Sudoeste 0 -- -- 11
2020-06-30 21:00:00 21.7 18 Sudoeste 45 Sudoeste 0 -- -- 13
2020-06-30 20:00:00 23.1 18 Oeste 50 Oeste 0 -- -- 12
2020-06-30 19:00:00 24.4 19 Oeste 48 Oeste 0 -- -- 11
2020-06-30 18:00:00 24.7 24 Oeste 55 Noroeste 0 -- -- 10
2020-06-30 17:00:00 25.3 20 Oeste 44 Sudoeste 0 -- -- 10
2020-06-30 16:00:00 25.5 19 Oeste 51 Oeste 0 -- -- 9
2020-06-30 15:00:00 25.9 16 Oeste 44 Sudoeste 0 -- -- 8
2020-06-30 14:00:00 25 17 Sudoeste 39 Sudoeste 0 -- -- 8
2020-06-30 13:00:00 25.2 19 Sur 38 Sudoeste 0 -- -- 8
2020-06-30 12:00:00 24.3 17 Sur 31 Sur 0 -- -- 10
2020-06-30 11:00:00 23.6 11 Sur 19 Sudeste 0 -- -- 7
2020-06-30 10:00:00 22.4 8 Sur 13 Sudoeste 0 -- -- 7
2020-06-30 09:00:00 20.2 4 Este 11 Este 0 -- -- 7
2020-06-30 08:00:00 14.3 2 Nordeste 6 Norte 0 -- -- 9
2020-06-30 07:00:00 12.9 4 Norte 7 Norte 0 -- -- 10
2020-06-30 06:00:00 11.9 6 Norte 8 Norte 0 -- -- 10
2020-06-30 05:00:00 13 3 Norte 7 Norte 0 -- -- 11
2020-06-30 04:00:00 12.4 7 Norte 9 Norte 0 -- -- 11
2020-06-30 03:00:00 11.1 9 Nordeste 10 Norte 0 -- -- 13
2020-06-30 02:00:00 11.1 6 Nordeste 10 Este 0 -- -- 13
2020-06-30 01:00:00 12.3 4 Norte 14 Nordeste 0 -- -- 13
2020-06-30 00:00:00 12.6 8 Nordeste 14 Este 0 -- -- 12
2020-06-29 23:00:00 14.6 11 Nordeste 15 Este 0 -- -- 12
2020-06-29 22:00:00 16.8 9 Nordeste 14 Este 0 -- -- 12
2020-06-29 21:00:00 19.5 4 Norte 18 Oeste 0 -- -- 16
2020-06-29 20:00:00 23.6 10 Oeste 20 Sur 0 -- -- 22
2020-06-29 19:00:00 25.4 11 Sur 22 Sur 0 -- -- 13
2020-06-29 18:00:00 24.8 14 Sur 27 Sur 0 -- -- 22
2020-06-29 17:00:00 24.8 14 Sur 28 Sudoeste 0 -- -- 21
2020-06-29 16:00:00 24.8 13 Sur 24 Sudeste 0 -- -- 22
2020-06-29 15:00:00 24.7 15 Sur 28 Sur 0 -- -- 20
2020-06-29 14:00:00 24.2 18 Sur 32 Sur 0 -- -- 24
2020-06-29 13:00:00 25 14 Sur 33 Sudeste 0 -- -- 13
2020-06-29 12:00:00 24.3 9 Sur 23 Sudeste 0 -- -- 14
2020-06-29 11:00:00 24.2 9 Nordeste 17 Nordeste 0 -- -- 12
2020-06-29 10:00:00 21 13 Este 22 Este 0 -- -- 11
2020-06-29 09:00:00 16.5 19 Este 25 Este 0 -- -- 14
2020-06-29 08:00:00 12.9 21 Este 24 Este 0 -- -- 16
2020-06-29 07:00:00 12.6 21 Este 26 Este 0 -- -- 15
2020-06-29 06:00:00 12.9 20 Este 26 Este 0 -- -- 15
2020-06-29 05:00:00 10.7 4 Norte 22 Nordeste 0 -- -- 18
2020-06-29 04:00:00 11 0 Calma 20 Este 0 -- -- 17
2020-06-29 03:00:00 13.6 14 Este 20 Este 0 -- -- 14
2020-06-29 02:00:00 15.1 13 Este 22 Este 0 -- -- 11
2020-06-29 01:00:00 16.1 15 Este 23 Este 0 -- -- 11
2020-06-29 00:00:00 15.9 15 Este 26 Este 0 -- -- 11
2020-06-28 23:00:00 16.4 21 Este 28 Este 0 -- -- 12
2020-06-28 22:00:00 16.7 9 Nordeste 21 Este 0 -- -- 11
2020-06-28 21:00:00 18.9 15 Este 22 Este 0 -- -- 10
2020-06-28 20:00:00 22.5 11 Oeste 23 Sur 0 -- -- 23
2020-06-28 19:00:00 23.9 15 Este 29 Sudeste 0 -- -- 13
2020-06-28 18:00:00 25.1 13 Sur 27 Sudeste 0 -- -- 13
2020-06-28 17:00:00 24.8 14 Sudoeste 27 Sudoeste 0 -- -- 24
2020-06-28 16:00:00 25.1 15 Sudoeste 31 Sur 0 -- -- 26
2020-06-28 15:00:00 24.9 17 Sudoeste 31 Sudoeste 0 -- -- 26
2020-06-28 14:00:00 24.7 13 Oeste 26 Sudoeste 0 -- -- 12
2020-06-28 13:00:00 24.4 13 Oeste 26 Oeste 0 -- -- 12
2020-06-28 12:00:00 23.8 10 Oeste 27 Sur 0 -- -- 9
2020-06-28 11:00:00 23.4 7 Sur 14 Sur 0 -- -- 9
2020-06-28 10:00:00 21.1 9 Sudoeste 15 Sudoeste 0 -- -- 10
2020-06-28 09:00:00 20.3 4 Este 9 Este 0 -- -- 10
2020-06-28 08:00:00 11.7 7 Nordeste 10 Norte 0 -- -- 15
2020-06-28 07:00:00 10.4 4 Nordeste 9 Nordeste 0 -- -- 15
2020-06-28 06:00:00 10.5 4 Nordeste 11 Norte 0 -- -- 16
2020-06-28 05:00:00 10.2 5 Nordeste 10 Nordeste 0 -- -- 17
2020-06-28 04:00:00 10.6 8 Norte 11 Norte 0 -- -- 17
2020-06-28 03:00:00 11 9 Norte 10 Norte 0 -- -- 17
2020-06-28 02:00:00 11.7 6 Norte 11 Norte 0 -- -- 16
2020-06-28 01:00:00 12 7 Norte 10 Norte 0 -- -- 16
2020-06-28 00:00:00 12.7 9 Nordeste 13 Norte 0 -- -- 16
2020-06-27 23:00:00 14.5 9 Nordeste 13 Nordeste 0 -- -- 14
2020-06-27 22:00:00 18.4 3 Oeste 21 Oeste 0 -- -- 14
2020-06-27 21:00:00 20.7 10 Oeste 25 Oeste 0 -- -- 12
2020-06-27 20:00:00 23.8 13 Oeste 31 Sur 0 -- -- 11
2020-06-27 19:00:00 24.7 14 Sudoeste 32 Oeste 0 -- -- 13
2020-06-27 18:00:00 25 15 Oeste 41 Sur 0 -- -- 12
2020-06-27 17:00:00 25.8 23 Sudoeste 44 Sudoeste 0 -- -- 12
2020-06-27 16:00:00 26 14 Sur 39 Sur 0 -- -- 11
2020-06-27 15:00:00 25.7 16 Sudoeste 41 Sur 0 -- -- 11
2020-06-27 14:00:00 25.7 15 Sudoeste 35 Sudoeste 0 -- -- 10
2020-06-27 13:00:00 25.6 13 Sudoeste 32 Sur 0 -- -- 10
2020-06-27 12:00:00 25.2 16 Sudoeste 30 Sudoeste 0 -- -- 10
2020-06-27 11:00:00 24.7 9 Sudoeste 27 Sudoeste 0 -- -- 9
2020-06-27 10:00:00 22.5 9 Sudoeste 13 Sudoeste 0 -- -- 11
2020-06-27 09:00:00 20.3 6 Sur 10 Sur 0 -- -- 13
2020-06-27 08:00:00 13.7 3 Sudoeste 6 Norte 0 -- -- 19
2020-06-27 07:00:00 10.1 5 Norte 6 Norte 0 -- -- 22
2020-06-27 06:00:00 9.2 6 Norte 10 Norte 0 -- -- 24
2020-06-27 05:00:00 9.6 4 Nordeste 10 Norte 0 -- -- 23
2020-06-27 04:00:00 10.2 5 Norte 10 Norte 0 -- -- 22
2020-06-27 03:00:00 9.7 6 Norte 8 Norte 0 -- -- 22
2020-06-27 02:00:00 10.8 3 Nordeste 8 Nordeste 0 -- -- 20
2020-06-27 01:00:00 12.2 6 Nordeste 9 Nordeste 0 -- -- 18
2020-06-27 00:00:00 12.6 3 Nordeste 8 Norte 0 -- -- 20
2020-06-26 23:00:00 12.8 7 Norte 8 Norte 0 -- -- 23
2020-06-26 22:00:00 16.2 5 Nordeste 12 Sur 0 -- -- 19
2020-06-26 21:00:00 18.9 3 Sudoeste 21 Sudoeste 0 -- -- 22
2020-06-26 20:00:00 23.5 7 Oeste 32 Sudoeste 0 -- -- 17
2020-06-26 19:00:00 23.9 15 Sudoeste 32 Sur 0 -- -- 17
2020-06-26 18:00:00 24.9 10 Sudoeste 31 Sudoeste 0 -- -- 15
2020-06-26 17:00:00 25.1 15 Oeste 31 Sudoeste 0 -- -- 18
2020-06-26 16:00:00 25 13 Oeste 25 Oeste 0 -- -- 10
2020-06-26 15:00:00 25 11 Oeste 28 Oeste 0 -- -- 18
2020-06-26 14:00:00 23.6 17 Oeste 28 Oeste 0 -- -- 20
2020-06-26 13:00:00 23.4 15 Oeste 24 Oeste 0 -- -- 15
2020-06-26 12:00:00 23.3 10 Sudoeste 17 Oeste 0 -- -- 9
2020-06-26 11:00:00 22.4 6 Sur 13 Sur 0 -- -- 7
2020-06-26 10:00:00 20 7 Sudoeste 10 Sudoeste 0 -- -- 8
2020-06-26 09:00:00 18.2 6 Nordeste 12 Este 0 -- -- 9
2020-06-26 08:00:00 9.8 4 Nordeste 10 Norte 0 -- -- 17
2020-06-26 07:00:00 7.3 6 Norte 9 Nordeste 0 -- -- 18
2020-06-26 06:00:00 8.3 10 Norte 12 Norte 0 -- -- 16
2020-06-26 05:00:00 7.4 6 Nordeste 13 Norte 0 -- -- 19
2020-06-26 04:00:00 8.8 4 Norte 12 Norte 0 -- -- 16
2020-06-26 03:00:00 8.8 9 Norte 15 Nordeste 0 -- -- 16
2020-06-26 02:00:00 10.6 11 Nordeste 16 Nordeste 0 -- -- 11
2020-06-26 01:00:00 10.7 10 Nordeste 15 Nordeste 0 -- -- 12
2020-06-26 00:00:00 10.3 9 Nordeste 17 Nordeste 0 -- -- 12
2020-06-25 23:00:00 13.4 8 Este 23 Este 0 -- -- 11
2020-06-25 22:00:00 14.2 15 Este 28 Este 0 -- -- 11
2020-06-25 21:00:00 15.6 20 Este 28 Este 0 -- -- 15
2020-06-25 20:00:00 21.8 17 Este 30 Este 0 -- -- 15
2020-06-25 19:00:00 22.1 10 Oeste 24 Sudoeste 0 -- -- 17
2020-06-25 18:00:00 22.5 13 Oeste 24 Oeste 0 -- -- 27
2020-06-25 17:00:00 24.1 17 Sur 28 Sudoeste 0 -- -- 27
2020-06-25 16:00:00 24.2 15 Sur 33 Oeste 0 -- -- 25
2020-06-25 15:00:00 24.6 16 Sur 32 Sudoeste 0 -- -- 24
2020-06-25 14:00:00 23.6 9 Oeste 25 Sudoeste 0 -- -- 24
2020-06-25 13:00:00 22.5 12 Oeste 24 Sur 0 -- -- 17
2020-06-25 12:00:00 22.9 13 Sudoeste 23 Sudoeste -- -- -- 10
2020-06-25 11:00:00 21.6 7 Sudoeste 12 Sudoeste 0 -- -- 7
2020-06-25 10:00:00 18.6 5 Oeste 8 Oeste 0 -- -- 8
2020-06-25 09:00:00 17.3 4 Este 8 Nordeste 0 -- -- 11
2020-06-25 08:00:00 9.6 -- -- -- -- 0 -- -- 18
2020-06-25 07:00:00 7 6 Norte 15 Norte 0 -- -- 19
2020-06-25 06:00:00 7.2 5 Norte 11 Nordeste 0 -- -- 19
2020-06-25 05:00:00 7.9 4 Norte 19 Este 0 -- -- 18
2020-06-25 04:00:00 7.8 6 Nordeste 12 Este 0 -- -- 18
2020-06-25 03:00:00 -- -- -- -- -- -- -- -- --
2020-06-25 02:00:00 -- -- -- -- -- -- -- -- --
2020-06-25 01:00:00 13.1 9 Este 22 Este 0 -- -- 11
2020-06-25 00:00:00 14 12 Este 23 Este 0 -- -- 9
2020-06-24 23:00:00 13.8 15 Nordeste 22 Este 0 -- -- 12
2020-06-24 22:00:00 15.9 16 Este 24 Este 0 -- -- 9
2020-06-24 21:00:00 18.2 13 Este 24 Sudeste 0 -- -- 10
2020-06-24 20:00:00 22 17 Sudoeste 38 Sudoeste 0 -- -- 13
2020-06-24 19:00:00 22.6 22 Sudoeste 44 Sur 0 -- -- 11
2020-06-24 18:00:00 22.5 26 Sur 49 Sudoeste 0 -- -- 12
2020-06-24 17:00:00 23.9 28 Sudoeste 49 Sudoeste 0 -- -- 16
2020-06-24 16:00:00 22.7 23 Sur 53 Sur 0 -- -- 14
2020-06-24 15:00:00 23.4 23 Sudoeste 39 Sudoeste 0 -- -- 16
2020-06-24 14:00:00 23.7 16 Oeste 33 Sudoeste 0 -- -- 18
2020-06-24 13:00:00 -- -- -- -- -- -- -- -- --
2020-06-24 12:00:00 -- -- -- -- -- -- -- -- --
2020-06-24 11:00:00 -- -- -- -- -- -- -- -- --
2020-06-24 10:00:00 -- -- -- -- -- -- -- -- --
2020-06-24 09:00:00 -- -- -- -- -- -- -- -- --
2020-06-24 08:00:00 -- -- -- -- -- -- -- -- --
2020-06-24 07:00:00 -- -- -- -- -- -- -- -- --
2020-06-24 06:00:00 -- -- -- -- -- -- -- -- --
2020-06-24 05:00:00 -- -- -- -- -- -- -- -- --
2020-06-24 04:00:00 -- -- -- -- -- -- -- -- --
2020-06-24 03:00:00 -- -- -- -- -- -- -- -- --
2020-06-24 02:00:00 -- -- -- -- -- -- -- -- --
2020-06-24 01:00:00 -- -- -- -- -- -- -- -- --
2020-06-24 00:00:00 -- -- -- -- -- -- -- -- --
2020-06-23 23:00:00 -- -- -- -- -- -- -- -- --
2020-06-23 22:00:00 -- -- -- -- -- -- -- -- --
2020-06-23 21:00:00 -- -- -- -- -- -- -- -- --
2020-06-23 20:00:00 -- -- -- -- -- -- -- -- --
2020-06-23 19:00:00 -- -- -- -- -- -- -- -- --
2020-06-23 18:00:00 -- -- -- -- -- -- -- -- --
2020-06-23 17:00:00 -- -- -- -- -- -- -- -- --
2020-06-23 16:00:00 -- -- -- -- -- -- -- -- --
2020-06-23 15:00:00 -- -- -- -- -- -- -- -- --
2020-06-23 14:00:00 -- -- -- -- -- -- -- -- --
2020-06-23 13:00:00 -- -- -- -- -- -- -- -- --
2020-06-23 12:00:00 -- -- -- -- -- -- -- -- --
2020-06-23 11:00:00 -- -- -- -- -- -- -- -- --
2020-06-23 10:00:00 -- -- -- -- -- -- -- -- --
2020-06-23 09:00:00 -- -- -- -- -- -- -- -- --
2020-06-23 08:00:00 -- -- -- -- -- -- -- -- --
2020-06-23 07:00:00 -- -- -- -- -- -- -- -- --
2020-06-23 06:00:00 -- -- -- -- -- -- -- -- --
2020-06-23 05:00:00 -- -- -- -- -- -- -- -- --
2020-06-23 04:00:00 -- -- -- -- -- -- -- -- --
2020-06-23 03:00:00 -- -- -- -- -- -- -- -- --
2020-06-23 02:00:00 -- -- -- -- -- -- -- -- --
2020-06-23 01:00:00 -- -- -- -- -- -- -- -- --
2020-06-23 00:00:00 -- -- -- -- -- -- -- -- --
2020-06-22 23:00:00 -- -- -- -- -- -- -- -- --
2020-06-22 22:00:00 -- -- -- -- -- -- -- -- --
2020-06-22 21:00:00 -- -- -- -- -- -- -- -- --
2020-06-22 20:00:00 -- -- -- -- -- -- -- -- --
2020-06-22 19:00:00 -- -- -- -- -- -- -- -- --
2020-06-22 18:00:00 -- -- -- -- -- -- -- -- --
2020-06-22 17:00:00 -- -- -- -- -- -- -- -- --
2020-06-22 16:00:00 -- -- -- -- -- -- -- -- --
2020-06-22 15:00:00 -- -- -- -- -- -- -- -- --
2020-06-22 14:00:00 -- -- -- -- -- -- -- -- --
2020-06-22 13:00:00 -- -- -- -- -- -- -- -- --
2020-06-22 12:00:00 -- -- -- -- -- -- -- -- --
2020-06-22 11:00:00 -- -- -- -- -- -- -- -- --
2020-06-22 10:00:00 -- -- -- -- -- -- -- -- --
2020-06-22 09:00:00 -- -- -- -- -- -- -- -- --
2020-06-22 08:00:00 -- -- -- -- -- -- -- -- --
2020-06-22 07:00:00 -- -- -- -- -- -- -- -- --
2020-06-22 06:00:00 -- -- -- -- -- -- -- -- --
2020-06-22 05:00:00 -- -- -- -- -- -- -- -- --
2020-06-22 04:00:00 -- -- -- -- -- -- -- -- --
2020-06-22 03:00:00 -- -- -- -- -- -- -- -- --
2020-06-22 02:00:00 -- -- -- -- -- -- -- -- --
2020-06-22 01:00:00 -- -- -- -- -- -- -- -- --
2020-06-22 00:00:00 -- -- -- -- -- -- -- -- --
2020-06-21 23:00:00 -- -- -- -- -- -- -- -- --
2020-06-21 22:00:00 -- -- -- -- -- -- -- -- --
2020-06-21 21:00:00 -- -- -- -- -- -- -- -- --
2020-06-21 20:00:00 -- -- -- -- -- -- -- -- --
2020-06-21 19:00:00 -- -- -- -- -- -- -- -- --
2020-06-21 18:00:00 -- -- -- -- -- -- -- -- --
2020-06-21 17:00:00 -- -- -- -- -- -- -- -- --
2020-06-21 16:00:00 -- -- -- -- -- -- -- -- --
2020-06-21 15:00:00 -- -- -- -- -- -- -- -- --
2020-06-21 14:00:00 -- -- -- -- -- -- -- -- --
2020-06-21 13:00:00 -- -- -- -- -- -- -- -- --
2020-06-21 12:00:00 25 15 Sur 22 Sur 0 -- -- 9
2020-06-21 11:00:00 23.8 11 Sur 23 Sur 0 -- -- 8
2020-06-21 10:00:00 22.8 8 Sur 14 Sur 0 -- -- 8
2020-06-21 09:00:00 19.8 3 Norte 8 Este 0 -- -- 11
2020-06-21 08:00:00 13.7 6 Nordeste 10 Nordeste 0 -- -- 18
2020-06-21 07:00:00 9.8 5 Norte 9 Norte 0 -- -- 21
2020-06-21 06:00:00 9.8 7 Norte 11 Norte 0 -- -- 23
2020-06-21 05:00:00 10.8 5 Norte 10 Norte 0 -- -- 22
2020-06-21 04:00:00 11.6 3 Nordeste 11 Nordeste 0 -- -- 20
2020-06-21 03:00:00 10.3 3 Norte 12 Nordeste 0 -- -- 29
2020-06-21 02:00:00 10.1 6 Nordeste 14 Nordeste 0 -- -- 33
2020-06-21 01:00:00 10.3 7 Norte 14 Norte 0 -- -- 36
2020-06-21 00:00:00 11.7 6 Nordeste 10 Norte 0 -- -- 31
2020-06-20 23:00:00 11.9 6 Norte 13 Nordeste 0 -- -- 33
2020-06-20 22:00:00 15 10 Este 13 Este 0 -- -- 26
2020-06-20 21:00:00 18.5 5 Oeste 17 Oeste 0 -- -- 28
2020-06-20 20:00:00 21.4 9 Oeste 20 Oeste 0 -- -- 26
2020-06-20 19:00:00 22.5 13 Oeste 24 Sudoeste 0 -- -- 35
2020-06-20 18:00:00 22.8 12 Oeste 25 Oeste 0 -- -- 25
2020-06-20 17:00:00 22.7 13 Oeste 24 Sur 0 -- -- 33
2020-06-20 16:00:00 24.3 15 Sur 24 Sudoeste 0 -- -- 15
2020-06-20 15:00:00 22.4 12 Oeste 26 Oeste 0 -- -- 39
2020-06-20 14:00:00 23.9 12 Sudoeste 35 Sudoeste 0 -- -- 32
2020-06-20 13:00:00 23.1 14 Sudoeste 28 Sudoeste 0 -- -- 26
2020-06-20 12:00:00 22.8 13 Sudoeste 31 Sudeste 0 -- -- 19
2020-06-20 11:00:00 21.9 9 Este 17 Este 0 -- -- 13
2020-06-20 10:00:00 19.7 8 Este 14 Este 0 -- -- 13
2020-06-20 09:00:00 17.1 6 Nordeste 13 Este 0 -- -- 17
2020-06-20 08:00:00 9.3 7 Nordeste 12 Nordeste 0 -- -- 25
2020-06-20 07:00:00 8.3 7 Nordeste 12 Nordeste 0 -- -- 24
2020-06-20 06:00:00 6.8 7 Norte 12 Norte 0 -- -- 25
2020-06-20 05:00:00 7.2 6 Nordeste 12 Norte 0 -- -- 25
2020-06-20 04:00:00 6.5 5 Norte 11 Nordeste 0 -- -- 27
2020-06-20 03:00:00 7.4 9 Norte 14 Este 0 -- -- 23
2020-06-20 02:00:00 8.2 8 Nordeste 14 Este 0 -- -- 21
2020-06-20 01:00:00 10.3 10 Nordeste 19 Nordeste 0 -- -- 18
2020-06-20 00:00:00 10.8 10 Este 17 Nordeste 0 -- -- 17
2020-06-19 23:00:00 12.4 15 Nordeste 24 Nordeste 0 -- -- 18
2020-06-19 22:00:00 12.6 21 Nordeste 30 Este 0 -- -- 24
2020-06-19 21:00:00 14.6 21 Este 33 Este 0 -- -- 21
2020-06-19 20:00:00 18 20 Nordeste 30 Nordeste 0 -- -- 19
2020-06-19 19:00:00 19.6 16 Este 31 Nordeste 0 -- -- 19
2020-06-19 18:00:00 20.4 20 Nordeste 31 Nordeste 0 -- -- 20
2020-06-19 17:00:00 20.9 11 Este 29 Este 0 -- -- 31
2020-06-19 16:00:00 20.4 15 Este 32 Este 0 -- -- 30
2020-06-19 15:00:00 20.4 17 Sudeste 33 Este 0 -- -- 26
2020-06-19 14:00:00 21.2 18 Este 37 Este 0 -- -- 24
2020-06-19 13:00:00 20.7 15 Nordeste 32 Nordeste 0 -- -- 20
2020-06-19 12:00:00 18.8 22 Este 38 Este 0 -- -- 16
2020-06-19 11:00:00 17 20 Este 31 Este 0 -- -- 27
2020-06-19 10:00:00 15.7 14 Este 28 Este 0 -- -- 31
2020-06-19 09:00:00 12.7 21 Este 28 Este 0 -- -- 38
2020-06-19 08:00:00 10.3 16 Este 29 Este 0 -- -- 48
2020-06-19 07:00:00 9.9 13 Este 27 Este 0 -- -- 47
2020-06-19 06:00:00 6.8 10 Norte 19 Este 0 -- -- 56
2020-06-19 05:00:00 9.7 12 Este 24 Este 0 -- -- 49
2020-06-19 04:00:00 8.3 11 Nordeste 17 Este 0 -- -- 46
2020-06-19 03:00:00 6.6 8 Norte 22 Nordeste 0 -- -- 54
2020-06-19 02:00:00 6.9 10 Norte 26 Este 0 -- -- 50
2020-06-19 01:00:00 11 17 Este 31 Este 0 -- -- 33
2020-06-19 00:00:00 9.8 24 Este 36 Este 0 -- -- 44
2020-06-18 23:00:00 10.6 19 Este 37 Este 0 -- -- 44
2020-06-18 22:00:00 11.1 26 Este 45 Este 0 -- -- 45
2020-06-18 21:00:00 12.6 23 Este 35 Este 0 -- -- 40
2020-06-18 20:00:00 15.2 19 Sudeste 35 Sudeste 0 -- -- 35
2020-06-18 19:00:00 15.6 12 Oeste 26 Sudoeste 0 -- -- 62
2020-06-18 18:00:00 16.8 14 Sudoeste 24 Sur 0 -- -- 58
2020-06-18 17:00:00 17.4 11 Oeste 29 Sur 0 -- -- 55
2020-06-18 16:00:00 16.5 14 Oeste 35 Sudoeste 0 -- -- 58
2020-06-18 15:00:00 17.4 18 Sudoeste 34 Sudoeste 0 -- -- 48
2020-06-18 14:00:00 17.9 14 Sudoeste 27 Sudoeste 0 -- -- 42
2020-06-18 13:00:00 16.8 13 Oeste 29 Sudoeste 0 -- -- 50
2020-06-18 12:00:00 18.1 13 Sur 30 Sur 0 -- -- 34
2020-06-18 11:00:00 16.2 11 Sur 28 Sudeste 0 -- -- 39
2020-06-18 10:00:00 15.3 9 Sur 18 Sudeste 0 -- -- 32
2020-06-18 09:00:00 13.3 7 Sudeste 22 Este 0 -- -- 29
2020-06-18 08:00:00 8.5 14 Nordeste 35 Este 0 -- -- 42
2020-06-18 07:00:00 7.5 4 Este 22 Sur 0 -- -- 44
2020-06-18 06:00:00 9.6 8 Sudoeste 28 Sur 0 -- -- 30
2020-06-18 05:00:00 11.5 15 Sur 34 Sudoeste 0 -- -- 26
2020-06-18 04:00:00 11.7 21 Sudoeste 50 Sudoeste 0 -- -- 31
2020-06-18 03:00:00 11.6 18 Sur 40 Oeste 0 -- -- 29
2020-06-18 02:00:00 12.5 14 Sudoeste 44 Oeste 0 -- -- 22
2020-06-18 01:00:00 13.1 25 Oeste 49 Oeste 0 -- -- 21
2020-06-18 00:00:00 13.5 21 Oeste 50 Oeste 0 -- -- 17
2020-06-17 23:00:00 13.1 21 Oeste 51 Oeste 0 -- -- 20
2020-06-17 22:00:00 14.2 22 Oeste 53 Oeste 0 -- -- 15
2020-06-17 21:00:00 14 26 Oeste 54 Oeste 0 -- -- 19
2020-06-17 20:00:00 15.4 26 Oeste 67 Oeste 0 -- -- 27
2020-06-17 19:00:00 16 30 Oeste 66 Oeste 0 -- -- 45
2020-06-17 18:00:00 15.8 30 Oeste 65 Oeste 0 -- -- 50
2020-06-17 17:00:00 16.1 27 Oeste 55 Oeste 0 -- -- 58
2020-06-17 16:00:00 16.8 30 Oeste 60 Oeste 0 -- -- 56
2020-06-17 15:00:00 17.2 27 Oeste 60 Oeste 0 -- -- 53
2020-06-17 14:00:00 17 24 Oeste 60 Oeste 0 -- -- 57
2020-06-17 13:00:00 16.1 31 Oeste 63 Oeste 0 -- -- 58
2020-06-17 12:00:00 15.5 31 Oeste 57 Oeste 0 -- -- 70
2020-06-17 11:00:00 15.4 24 Oeste 55 Oeste 0 -- -- 71
2020-06-17 10:00:00 14.8 24 Oeste 49 Oeste 0 -- -- 67
2020-06-17 09:00:00 12.7 19 Oeste 41 Oeste 0 -- -- 79
2020-06-17 08:00:00 12.7 20 Oeste 44 Sudoeste 0 -- -- 76
2020-06-17 07:00:00 12 17 Oeste 47 Oeste 0.4 -- -- 82
2020-06-17 06:00:00 12 19 Oeste 55 Oeste 1.4 -- -- 84
2020-06-17 05:00:00 11.5 21 Oeste 42 Oeste 2.8 -- -- 86
2020-06-17 04:00:00 12.1 26 Oeste 57 Oeste 0.8 -- -- 81
2020-06-17 03:00:00 12.3 17 Oeste 55 Oeste 2.4 -- -- 81
2020-06-17 02:00:00 12.5 24 Oeste 52 Oeste 1.4 -- -- 79
2020-06-17 01:00:00 12.8 27 Oeste 69 Oeste 0.6 -- -- 76
2020-06-17 00:00:00 15.6 25 Oeste 60 Oeste 0.8 -- -- 58
2020-06-16 23:00:00 15.6 30 Oeste 60 Oeste 0 -- -- 58
2020-06-16 22:00:00 15.5 26 Noroeste 55 Oeste 0 -- -- 61
2020-06-16 21:00:00 17.7 31 Oeste 54 Oeste 0 -- -- 48
2020-06-16 20:00:00 16.3 33 Oeste 67 Oeste 0 -- -- 55
2020-06-16 19:00:00 16.5 19 Oeste 52 Noroeste 0 -- -- 57
2020-06-16 18:00:00 19.1 16 Oeste 38 Oeste 0 -- -- 45
2020-06-16 17:00:00 19 13 Sudoeste 43 Sudoeste 0 -- -- 46
2020-06-16 16:00:00 20.7 16 Oeste 37 Oeste 0 -- -- 40
2020-06-16 15:00:00 19.6 17 Oeste 46 Oeste 0 -- -- 41
2020-06-16 14:00:00 20.1 27 Oeste 57 Oeste 0 -- -- 41
2020-06-16 13:00:00 19.2 22 Noroeste 60 Noroeste 0 -- -- 45
2020-06-16 12:00:00 19 28 Oeste 60 Oeste 0 -- -- 44
2020-06-16 11:00:00 18.6 24 Oeste 53 Oeste 0 -- -- 46
2020-06-16 10:00:00 17.3 24 Sudoeste 54 Oeste 0 -- -- 49
2020-06-16 09:00:00 17.1 20 Oeste 46 Oeste 0 -- -- 49
2020-06-16 08:00:00 16.3 13 Sudoeste 44 Sudoeste 0 -- -- 52
2020-06-16 07:00:00 16.1 20 Oeste 41 Noroeste 0 -- -- 51
2020-06-16 06:00:00 16.9 9 Sudoeste 38 Oeste 0 -- -- 49
2020-06-16 05:00:00 17 13 Sudoeste 49 Oeste 0 -- -- 48
2020-06-16 04:00:00 16.9 23 Oeste 45 Oeste 0 -- -- 48
2020-06-16 03:00:00 16.7 28 Oeste 50 Oeste 0 -- -- 49
2020-06-16 02:00:00 17.6 16 Sudoeste 41 Oeste 0 -- -- 45
2020-06-16 01:00:00 17.2 27 Oeste 63 Oeste 0 -- -- 47
2020-06-16 00:00:00 16.6 27 Oeste 56 Oeste 0 -- -- 48
2020-06-15 23:00:00 17.2 11 Sudoeste 54 Oeste 0 -- -- 45
2020-06-15 22:00:00 16.1 27 Noroeste 51 Oeste 0 -- -- 46
2020-06-15 21:00:00 16.7 25 Oeste 58 Oeste 0 -- -- 49
2020-06-15 20:00:00 16.9 26 Oeste 61 Noroeste 0 -- -- 47
2020-06-15 19:00:00 17.6 25 Sudoeste 67 Sudoeste 0 -- -- 47
2020-06-15 18:00:00 18.5 19 Sudoeste 62 Sudoeste 0 -- -- 45
2020-06-15 17:00:00 20.1 23 Oeste 57 Sudoeste 0 -- -- 42
2020-06-15 16:00:00 20.2 25 Oeste 58 Oeste 0 -- -- 43
2020-06-15 15:00:00 18.7 31 Oeste 64 Oeste 0 -- -- 48
2020-06-15 14:00:00 19.5 21 Sudoeste 65 Sudoeste 0 -- -- 48
2020-06-15 13:00:00 17.9 35 Sudoeste 68 Sudoeste 0 -- -- 53
2020-06-15 12:00:00 17.5 22 Oeste 63 Oeste 0 -- -- 53
2020-06-15 11:00:00 17.4 33 Oeste 68 Oeste 0 -- -- 52
2020-06-15 10:00:00 17.3 17 Sudoeste 65 Oeste 0 -- -- 60
2020-06-15 09:00:00 14.6 21 Sudoeste 52 Sudoeste 0 -- -- 66
2020-06-15 08:00:00 13.9 26 Oeste 49 Oeste 0.2 -- -- 68
2020-06-15 07:00:00 13.6 18 Oeste 49 Oeste 0 -- -- 70
2020-06-15 06:00:00 13.9 21 Oeste 48 Sudoeste 0 -- -- 66
2020-06-15 05:00:00 13.5 24 Oeste 48 Oeste 0.2 -- -- 70
2020-06-15 04:00:00 12.9 22 Oeste 37 Oeste 2 -- -- 75
2020-06-15 03:00:00 13.6 12 Sudoeste 35 Sudoeste 0 -- -- 71
2020-06-15 02:00:00 14.5 9 Oeste 27 Sudoeste 0 -- -- 63
2020-06-15 01:00:00 14 9 Sur 17 Sudoeste 0 -- -- 62
2020-06-15 00:00:00 14.6 9 Oeste 20 Oeste 0 -- -- 61
2020-06-14 23:00:00 15.4 9 Sur 23 Sudoeste 0 -- -- 59
2020-06-14 22:00:00 15.6 10 Sudoeste 27 Sur 0 -- -- 58
2020-06-14 21:00:00 15.5 8 Sur 25 Sudoeste 0 -- -- 65
2020-06-14 20:00:00 15.3 6 Sudoeste 31 Oeste 0.2 -- -- 65
2020-06-14 19:00:00 15.6 13 Sudoeste 41 Sudoeste 0 -- -- 62
2020-06-14 18:00:00 17.9 14 Oeste 33 Oeste 0 -- -- 50
2020-06-14 17:00:00 19.5 17 Sudoeste 36 Oeste 0 -- -- 46
2020-06-14 16:00:00 17.7 10 Oeste 41 Sudoeste 0 -- -- 43
2020-06-14 15:00:00 21.4 17 Sudoeste 40 Sudoeste 0 -- -- 36
2020-06-14 14:00:00 21 20 Oeste 53 Sudoeste 0 -- -- 36
2020-06-14 13:00:00 20.3 20 Oeste 42 Sudoeste 0 -- -- 34
2020-06-14 12:00:00 19.9 21 Oeste 44 Sudoeste 0 -- -- 32
2020-06-14 11:00:00 18.9 18 Oeste 47 Noroeste 0 -- -- 33
2020-06-14 10:00:00 17.1 24 Oeste 52 Oeste 0 -- -- 37
2020-06-14 09:00:00 15.8 20 Oeste 41 Oeste 0 -- -- 36
2020-06-14 08:00:00 14.7 17 Oeste 40 Oeste 0 -- -- 32
2020-06-14 07:00:00 14.2 19 Oeste 55 Oeste 0 -- -- 15
2020-06-14 06:00:00 14.3 16 Oeste 38 Oeste 0 -- -- 8
2020-06-14 05:00:00 13.8 14 Sudoeste 32 Sudoeste 0 -- -- 7
2020-06-14 04:00:00 13.5 12 Sudoeste 28 Sudoeste 0 -- -- 7
2020-06-14 03:00:00 13.3 10 Sudoeste 25 Sudoeste 0 -- -- 7
2020-06-14 02:00:00 13.5 9 Sudoeste 26 Sudoeste 0 -- -- 7
2020-06-14 01:00:00 14.1 12 Sudoeste 37 Sudoeste 0 -- -- 7
2020-06-14 00:00:00 13.9 17 Sudoeste 40 Oeste 0 -- -- 8
2020-06-13 23:00:00 14.7 14 Sudoeste 36 Oeste 0 -- -- 6
2020-06-13 22:00:00 14.7 20 Sudoeste 39 Sur 0 -- -- 7
2020-06-13 21:00:00 14.2 16 Sudoeste 43 Sudoeste 0 -- -- 9
2020-06-13 20:00:00 16.3 14 Sudoeste 33 Oeste 0 -- -- 8
2020-06-13 19:00:00 17.8 16 Oeste 40 Sudoeste 0 -- -- 9
2020-06-13 18:00:00 18.4 16 Oeste 45 Oeste 0 -- -- 12
2020-06-13 17:00:00 18.2 18 Oeste 50 Sudoeste 0 -- -- 10
2020-06-13 16:00:00 18.4 17 Oeste 42 Sur 0 -- -- 16
2020-06-13 15:00:00 17.9 19 Oeste 43 Sudoeste 0 -- -- 10
2020-06-13 14:00:00 17 21 Sudoeste 51 Sur 0 -- -- 17
2020-06-13 13:00:00 16.4 18 Sur 43 Sudoeste 0 -- -- 15
2020-06-13 12:00:00 15.9 13 Sudoeste 42 Sur 0 -- -- 17
2020-06-13 11:00:00 16.4 14 Sudoeste 38 Sudoeste 0 -- -- 19
2020-06-13 10:00:00 15.5 15 Sudoeste 34 Sudoeste 0 -- -- 18
2020-06-13 09:00:00 13.6 14 Sudoeste 37 Sudoeste 0 -- -- 8
2020-06-13 08:00:00 12.3 16 Sudoeste 39 Sudoeste 0 -- -- 9
2020-06-13 07:00:00 12.1 20 Sudoeste 32 Sudoeste 0 -- -- 9
2020-06-13 06:00:00 11.8 12 Sudoeste 38 Oeste 0 -- -- 10
2020-06-13 05:00:00 11.5 9 Sudoeste 28 Sudoeste 0 -- -- 14
2020-06-13 04:00:00 11.7 11 Oeste 37 Sudoeste 0 -- -- 15
2020-06-13 03:00:00 12.1 10 Sudoeste 29 Sudeste 0 -- -- 15
2020-06-13 02:00:00 12.1 12 Sudoeste 34 Sudoeste 0 -- -- 13
2020-06-13 01:00:00 12.1 13 Sudoeste 24 Sudoeste 0 -- -- 11
2020-06-13 00:00:00 13 20 Sudoeste 35 Sudoeste 0 -- -- 9
2020-06-12 23:00:00 13.6 11 Sudoeste 22 Sudoeste 0 -- -- 8
2020-06-12 22:00:00 12.9 5 Sur 26 Oeste 0 -- -- 9
2020-06-12 21:00:00 14.5 8 Sur 24 Sur 0 -- -- 7
2020-06-12 20:00:00 14.4 10 Sudoeste 35 Sudoeste 0 -- -- 10
2020-06-12 19:00:00 15.1 17 Sudoeste 40 Sur 0 -- -- 14
2020-06-12 18:00:00 17 20 Oeste 39 Oeste 0 -- -- 10
2020-06-12 17:00:00 17.9 22 Oeste 46 Oeste 0 -- -- 11
2020-06-12 16:00:00 17.5 25 Oeste 46 Oeste 0 -- -- 11
2020-06-12 15:00:00 18.3 23 Oeste 48 Oeste 0 -- -- 10
2020-06-12 14:00:00 18.1 24 Oeste 51 Oeste 0 -- -- 10
2020-06-12 13:00:00 17.2 26 Oeste 54 Sudoeste 0 -- -- 9
2020-06-12 12:00:00 17.1 21 Oeste 46 Oeste 0 -- -- 8
2020-06-12 11:00:00 16.5 20 Oeste 42 Oeste 0 -- -- 8
2020-06-12 10:00:00 15.3 17 Oeste 36 Oeste 0 -- -- 9
2020-06-12 09:00:00 13.9 17 Oeste 34 Oeste 0 -- -- 10
2020-06-12 08:00:00 12.2 16 Sudoeste 36 Sur 0 -- -- 12
2020-06-12 07:00:00 11.7 12 Sudoeste 32 Sudoeste 0 -- -- 12
2020-06-12 06:00:00 11.5 9 Sudoeste 28 Sur 0 -- -- 13
2020-06-12 05:00:00 11.5 11 Sudoeste 31 Sudoeste 0 -- -- 13
2020-06-12 04:00:00 11.7 13 Sudoeste 32 Sudoeste 0 -- -- 13
2020-06-12 03:00:00 12 9 Sudoeste 28 Sudoeste 0 -- -- 12
2020-06-12 02:00:00 12.6 13 Sudoeste 42 Sudoeste 0 -- -- 13
2020-06-12 01:00:00 12.4 11 Sudoeste 40 Sudoeste 0 -- -- 16
2020-06-12 00:00:00 13.2 13 Sudoeste 31 Oeste 0 -- -- 13